Regional Weather Roundup
Issued by NWS

Home | Current Version | Previous Version | Text Only | Print | Product List | Glossary Off
Versions: 1 2 3 4 5 6 7 8 9 10 11 12 13 14 15 16 17 18 19 20 21 22 23 24 25 26 27 28 29 30 31 32 33 34 35 36 37 38 39 40 41 42 43 44 45 46 47 48 49 50

000
ASUS43 KIND 291609
RWRIN

WEATHER ROUNDUP FOR INDIANA
NATIONAL WEATHER SERVICE INDIANAPOLIS IN
1200 PM EDT WED OCT 29 2014

NOTE: "FAIR" INDICATES FEW OR NO CLOUDS BELOW 12,000 FEET WITH NO
SIGNIFICANT WEATHER AND/OR OBSTRUCTIONS TO VISIBILITY.

* - STATION DOES NOT REPORT WEATHER SUCH AS PRECIPITATION OR FOG.

+ - STATION NOT QUALITY CONTROLLED BY THE NATIONAL WEATHER SERVICE.
    USE DATA WITH CAUTION...ESPECIALLY DEWPOINT AND RELATIVE
    HUMIDITY OBSERVATIONS.

INZ001>003-010>013-019-020-291700-
NORTHWEST INDIANA

CITY           SKY/WX    TMP DP  RH WIND       PRES   REMARKS
GARY /AIRPORT/ CLOUDY    46  30  53 W14G28    30.08R
KNOX *+        CLOUDY    46  34  62 W8        30.05R
LA PORTE +     CLOUDY    47  34  62 NW8       30.06R
MICHIGAN CITY+ CLOUDY    45  32  61 NW10G17   30.06R
MONTICELLO +   CLOUDY    46  36  69 W12       30.08R
RENSSELAER +   CLOUDY    46  37  71 W10G18    30.09R
VALPARAISO     CLOUDY    45  32  60 W15G21    30.07R

$$

LMZ046-743>745-291700-
SOUTHERN LAKE MICHIGAN

STATION/POSITION TIME  TEMP WIND        PRES
                       AIR  DIR/SP/G
                 (UTC) (F)  (DEG/KT/KT) (MB)
MICHIGAN CITY    1600   45  270/ 19/ 25   N/A

$$

INZ004-005-014>016-021>024-291700-
NORTH CENTRAL INDIANA

CITY           SKY/WX    TMP DP  RH WIND       PRES   REMARKS
ELKHART        CLOUDY    45  36  70 W8        30.03R
GOSHEN         CLOUDY    45  36  70 W14       30.03R
LOGANSPORT +   CLOUDY    45  32  61 W14       30.08S
PERU/GRISSOM   CLOUDY    47  38  71 W15       30.07R
ROCHESTER +    CLOUDY    46  36  66 W9        30.07R
SOUTH BEND     CLOUDY    46  34  62 NW13      30.05R
WARSAW +       CLOUDY    43  36  75 W10       30.05R

$$

INZ006>009-017-018-025>027-291700-
NORTHEAST INDIANA

CITY           SKY/WX    TMP DP  RH WIND       PRES   REMARKS
ANGOLA *+      CLOUDY    45  37  76 W8        30.02R
AUBURN +       CLOUDY    45  34  65 W9G18     30.04R
FORT WAYNE     CLOUDY    48  35  60 W16       30.05R
HUNTINGTON +   CLOUDY   N/A N/A N/A W12G20    30.05S

$$

INZ028-029-035-036-043>045-051>053-291700-
WEST CENTRAL INDIANA

CITY           SKY/WX    TMP DP  RH WIND       PRES   REMARKS
GREENCASTLE +  MOSUNNY   50  34  53 W9        30.11S
LAFAYETTE      CLOUDY    47  36  65 W15       30.10R
TERRE HAUTE    SUNNY     50  35  56 W13G20    30.13S

$$

INZ030>032-037>040-046>048-054>057-064-065-291700-
CENTRAL INDIANA

CITY           SKY/WX    TMP DP  RH WIND       PRES   REMARKS
ANDERSON       PTSUNNY   46  32  57 W17G29    30.10R
CP ATTERBURY + SUNNY     52  36  54 NW10G17   30.11S
COLUMBUS       MOSUNNY   52  37  58 MISG      30.11S
FRANKFORT +    CLOUDY    47  36  65 W12       30.11R
INDIANAPOLIS   PTSUNNY   50  34  54 W16       30.10S
-EAGLE CREEK   PTSUNNY   51  36  56 W13G20    30.09S
KOKOMO *+      CLOUDY    46  34  61 W17       30.09R
MARION +       CLOUDY    45  32  61 W17G25    30.08S
MT COMFORT *+  PTSUNNY   52  27  37 W16       30.10R
SHELBYVILLE    SUNNY     53  35  50 W13G24    30.09S
ZIONSVILLE +   CLOUDY    48  32  54 W10G23    30.10S

$$

INZ033-034-041-042-049-050-058-059-291700-
EAST CENTRAL INDIANA

CITY           SKY/WX    TMP DP  RH WIND       PRES   REMARKS
MUNCIE         CLOUDY    47  34  60 W16       30.07R

$$

INZ060-061-067>069-081>083-085>088-291700-
SOUTHWEST INDIANA

CITY           SKY/WX    TMP DP  RH WIND       PRES   REMARKS
EVANSVILLE     SUNNY     56  37  49 NW7       30.17S
HUNTINGBURG *+ SUNNY     57  39  51 NW9       30.16S
WASHINGTON +   SUNNY     54  38  54 NW13      30.15S

$$

INZ062-063-066-070>080-084-089>092-291700-
SOUTH CENTRAL AND SOUTHEAST INDIANA

CITY           SKY/WX    TMP DP  RH WIND       PRES   REMARKS
BLOOMINGTON    SUNNY     51  36  56 W13G21    30.12S
SEYMOUR +      SUNNY     57  37  47 W14G22    30.11

$$




USA.gov is the U.S. government's official web portal to all federal, state and local government web resources and services.